Berlin, NH

5:07 PM EDT on July 27, 2017 (GMT -0400)
Berlin Municipal

Weather History for KBML - January, 2013

Change the Weather History Date:

Saturday, January 5, 2013

  Actual Average Record
Temperature  
Mean Temperature 15 °F -  
Max Temperature 30 °F 24 °F 51 °F (2007)
Min Temperature 0 °F 4 °F -20 °F (2016)
Degree Days  
Heating Degree Days 50    
Moisture  
Dew Point 15 °F    
Average Humidity 71    
Maximum Humidity 86    
Minimum Humidity 54    
Precipitation  
Precipitation 0.02 in - - ()
Sea Level Pressure  
Sea Level Pressure 29.95 in    
Wind  
Wind Speed 7 mph (NW)    
Max Wind Speed 20 mph    
Max Gust Speed 34 mph    
Visibility 5 miles    
Events Snow    
Averages and records for this station are not official NWS values.
T = Trace of Precipitation, MM = Missing Value Source: NWS Daily Summary

Daily Weather History Graph

Daily Weather History Graph

Search for Another Location

Airport or City:

Trip Planner

Search our weather history database for the weather conditions in past years. The results will help you decide how hot, cold, wet, or windy it might be!

Date:

Astronomy

Jan. 05, 2013 Rise Set
Actual Time 7:21 AM EST 4:19 PM EST
Civil Twilight 6:48 AM EST 4:52 PM EST
Nautical Twilight 6:11 AM EST 5:29 PM EST
Astronomical Twilight 5:36 AM EST 6:04 PM EST
Moon 12:15 AM EST (1/5) 11:14 AM EST (1/5)
Length of Visible Light 10h 04m
Length of Day
8h 58m
Last Quarter, 44% of the Moon is Illuminated
Jan 5
Last Quarter
Jan 11
New
Jan 18
First Quarter
Jan 26
Full
Feb 3
Last Quarter

Hourly Weather History & Observations

Time (EST) Temp. Windchill Dew Point Humidity Pressure Visibility Wind Dir Wind Speed Gust Speed Precip Events Conditions
12:52 AM 30.0 °F 23.2 °F 21.9 °F 72% 29.70 in 8.0 mi Variable 6.9 mph - 0.00 in Snow Light Snow
1:17 AM 30.2 °F 25.4 °F 21.2 °F 69% 29.66 in 5.0 mi Variable 4.6 mph - 0.00 in Snow Light Snow
1:29 AM 30.2 °F 25.4 °F 21.2 °F 69% 29.66 in 4.0 mi Variable 4.6 mph - 0.00 in Snow Light Snow
1:52 AM 30.0 °F 26.5 °F 21.0 °F 69% 29.72 in 7.0 mi Variable 3.5 mph - 0.00 in Snow Light Snow
2:52 AM 30.0 °F 22.4 °F 21.9 °F 72% 29.74 in 4.0 mi WNW 8.1 mph - 0.00 in Snow Light Snow
3:33 AM 30.2 °F 23.4 °F 23.0 °F 75% 29.71 in 1.8 mi Variable 6.9 mph - 0.00 in Snow Light Snow
3:45 AM 28.4 °F 22.2 °F 24.8 °F 86% 29.72 in 1.2 mi Variable 5.8 mph - 0.00 in Snow Light Snow
3:52 AM 28.9 °F 22.8 °F 24.1 °F 82% 29.77 in 1.0 mi Variable 5.8 mph - 0.00 in Snow Light Snow
4:15 AM 28.4 °F 24.6 °F 24.8 °F 86% 29.73 in 0.8 mi Variable 3.5 mph - 0.01 in Snow Light Snow
4:21 AM 28.4 °F 24.6 °F 24.8 °F 86% 29.73 in 1.0 mi Variable 3.5 mph - 0.01 in Snow Light Snow
4:30 AM 28.4 °F 23.3 °F 24.8 °F 86% 29.74 in 1.5 mi WNW 4.6 mph - 0.01 in Snow Light Snow
4:35 AM 28.4 °F 23.3 °F 24.8 °F 86% 29.74 in 0.8 mi Variable 4.6 mph - 0.01 in Snow Light Snow
4:52 AM 28.9 °F 21.1 °F 24.1 °F 82% 29.79 in 1.5 mi WNW 8.1 mph 23.0 mph 0.02 in Snow Light Snow
5:14 AM 28.4 °F 20.4 °F 24.8 °F 86% 29.76 in 1.2 mi WNW 8.1 mph 23.0 mph 0.00 in Snow Light Snow
5:21 AM 28.4 °F 21.2 °F 24.8 °F 86% 29.76 in 2.0 mi WNW 6.9 mph - 0.00 in Snow Light Snow
5:29 AM 28.4 °F 20.4 °F 23.0 °F 80% 29.77 in 6.0 mi WNW 8.1 mph 17.3 mph 0.00 in Snow Light Snow
5:37 AM 28.4 °F 19.1 °F 24.8 °F 86% 29.78 in 1.8 mi WNW 10.4 mph - 0.00 in Snow Light Snow
5:52 AM 28.9 °F 20.4 °F 24.1 °F 82% 29.84 in 3.0 mi WNW 9.2 mph 19.6 mph 0.00 in Snow Light Snow
6:05 AM 28.4 °F 18.5 °F 21.2 °F 74% 29.82 in 4.0 mi NW 11.5 mph 24.2 mph 0.00 in Snow Light Snow
6:20 AM 28.4 °F 15.4 °F 17.6 °F 64% 29.84 in 2.5 mi NW 19.6 mph 31.1 mph 0.00 in Snow Light Snow
6:25 AM 26.6 °F 16.2 °F 17.6 °F 69% 29.84 in 1.2 mi WNW 11.5 mph 31.1 mph 0.00 in Snow Light Snow
6:32 AM 28.4 °F 18.0 °F 17.6 °F 64% 29.85 in 2.0 mi WNW 12.7 mph 27.6 mph 0.00 in Snow Light Snow
6:39 AM 26.6 °F 17.5 °F 15.8 °F 64% 29.86 in 7.0 mi WNW 9.2 mph 24.2 mph 0.00 in   Overcast
6:52 AM 26.1 °F 18.4 °F 18.0 °F 71% 29.92 in 10.0 mi WNW 6.9 mph 17.3 mph 0.00 in   Mostly Cloudy
7:52 AM 26.1 °F 15.6 °F 15.1 °F 63% 29.97 in 6.0 mi WNW 11.5 mph 19.6 mph 0.00 in Snow Light Snow
8:45 AM 24.8 °F 19.1 °F 17.6 °F 74% 29.98 in 2.0 mi NW 4.6 mph - 0.00 in Snow Light Snow
8:52 AM 25.0 °F 18.1 °F 18.0 °F 75% 30.04 in 2.0 mi Variable 5.8 mph - 0.00 in Snow Light Snow
8:58 AM 24.8 °F 16.9 °F 17.6 °F 74% 29.99 in 1.8 mi NW 6.9 mph - 0.00 in Snow Light Snow
9:05 AM 24.8 °F 11.9 °F 17.6 °F 74% 29.99 in 1.8 mi NW 16.1 mph 25.3 mph 0.00 in Snow Light Snow
9:20 AM 24.8 °F 14.0 °F 15.8 °F 69% 30.01 in 3.0 mi NW 11.5 mph 25.3 mph 0.00 in Snow Light Snow
9:32 AM 24.8 °F 12.9 °F 12.2 °F 59% 30.01 in 2.5 mi NW 13.8 mph 26.5 mph 0.00 in Snow Light Snow
9:39 AM 24.8 °F 13.4 °F 12.2 °F 59% 30.02 in 4.0 mi WNW 12.7 mph 25.3 mph 0.00 in   Overcast
9:48 AM 24.8 °F 12.4 °F 12.2 °F 59% 30.03 in 4.0 mi WNW 15.0 mph 28.8 mph 0.00 in Snow Light Snow
9:52 AM 24.1 °F 12.0 °F 10.9 °F 57% 30.08 in 4.0 mi WNW 13.8 mph 28.8 mph 0.00 in Snow Light Snow
10:03 AM 24.8 °F 14.0 °F 10.4 °F 54% 30.04 in 4.0 mi WNW 11.5 mph 24.2 mph 0.00 in Snow Light Snow
10:23 AM 23.0 °F 10.6 °F 10.4 °F 59% 30.05 in 1.5 mi NW 13.8 mph 28.8 mph 0.00 in Snow Light Snow
10:36 AM 23.0 °F 11.7 °F 10.4 °F 59% 30.05 in 3.0 mi WNW 11.5 mph 33.4 mph 0.00 in Snow Light Snow
10:49 AM 24.8 °F 15.3 °F 10.4 °F 54% 30.06 in 6.0 mi NNW 9.2 mph 34.5 mph 0.00 in Snow Light Snow
10:52 AM 23.0 °F 13.1 °F 10.9 °F 60% 30.11 in 4.0 mi NW 9.2 mph 24.2 mph 0.00 in   Haze
11:52 AM 21.9 °F 15.7 °F 9.0 °F 58% 30.13 in 10.0 mi NW 4.6 mph - 0.00 in   Overcast
12:52 PM 21.9 °F 11.7 °F 9.0 °F 58% 30.15 in 10.0 mi NNW 9.2 mph 18.4 mph N/A   Overcast
1:52 PM 21.0 °F 13.4 °F 9.0 °F 60% 30.17 in 10.0 mi Variable 5.8 mph - N/A   Mostly Cloudy
2:52 PM 21.0 °F 9.3 °F 8.1 °F 57% 30.17 in 10.0 mi WNW 11.5 mph 16.1 mph N/A   Clear
3:52 PM 21.0 °F 14.6 °F 7.0 °F 55% 30.18 in 10.0 mi NNW 4.6 mph - N/A   Clear
4:52 PM 17.1 °F - 6.1 °F 62% 30.21 in 10.0 mi Calm Calm - N/A   Clear
5:52 PM 10.0 °F - 3.0 °F 73% 30.22 in 10.0 mi Calm Calm - N/A   Clear
6:52 PM 9.0 °F - 3.0 °F 77% 30.23 in 10.0 mi Calm Calm - N/A   Clear
7:52 PM 3.9 °F - -0.0 °F 84% 30.24 in 10.0 mi Calm Calm - N/A   Clear
8:52 PM 1.9 °F - -2.9 °F 80% 30.24 in 10.0 mi Calm Calm - N/A   Clear
9:52 PM -0.9 °F - -7.1 °F 75% 30.27 in 10.0 mi Calm Calm - N/A   Scattered Clouds
10:52 PM 1.0 °F - -2.9 °F 83% 30.24 in 10.0 mi Calm Calm - N/A   Clear
11:52 PM 1.0 °F - -4.0 °F 79% 30.23 in 10.0 mi Calm Calm - N/A   Clear